[[{"header":{"parameterUnit":"m.s-1","parameterCategory":1,"la1":30.2991,"la2":30.254,"lo1":-89.0895,"lo2":-89.0444,"dy":0.0017,"dx":0.0017,"nx":28,"ny":28,"refTime":"2025-07-23T03:00:00:Z","depth":0,"parameterNumber":2,"parameterNumberName":"U-component_of_WINDS"},"data":[0,0,0,0,0,0,0,0,0,0,0,0,0,0,0,0,0,0,0,0,0,0,0,0,0,0,0,0,0,0,0,0,0,0,0,0,0,0,0,0,0,0,0,0,0,0,0,0,0,0,0,0,0,0,0,0,0,0,1.5752,1.5753,0,1.5825,1.5825,1.5826,1.5772,1.577,1.5768,1.5765,1.5847,1.5851,1.5856,0,0,0,0,0,0,0,0,0,0,0,0,0,1.5575,1.5578,1.5752,1.5753,1.5754,1.5824,1.5825,1.5826,1.5773,1.577,1.5767,1.5764,1.5846,1.5851,1.5856,0,0,0,0,0,0,0,0,0,0,0,0,0,1.565,1.5579,1.5752,1.5735,1.5734,1.5824,1.5826,1.5827,1.5773,1.577,1.5766,1.5763,1.5844,1.585,1.5857,1.5969,0,0,1.5877,1.588,0,0,0,0,0,0,0,0,1.5646,1.5657,1.5737,1.5737,1.5736,1.5786,1.5793,1.5875,1.5774,1.5759,1.5765,1.5761,1.583,1.5838,1.5859,1.5973,1.5977,1.5878,1.5882,1.5885,1.5886,0,0,0,0,0,0,0,1.5641,1.5653,1.5781,1.5738,1.5738,1.5727,1.5734,1.5808,1.5814,1.576,1.5756,1.5765,1.5829,1.5853,1.5861,1.5978,1.5878,1.5883,1.5887,1.589,1.619,1.6194,0,0,0,0,0,0,1.5636,1.5649,1.5779,1.5783,1.5681,1.5733,1.5741,1.5773,1.5813,1.5815,1.5768,1.5762,1.5844,1.5853,1.5864,1.6,1.5884,1.5891,1.5894,1.6186,1.6191,1.6196,0,0,0,0,0,0,1.5632,1.5648,1.5776,1.5715,1.5731,1.574,1.5777,1.5777,1.58,1.5819,1.582,1.5791,1.5841,1.5854,1.5943,1.6002,1.5894,1.59,1.6182,1.6188,1.6193,1.6271,0,0,0,0,0,0,1.5628,1.5647,1.5688,1.5716,1.5734,1.5852,1.5781,1.5781,1.5811,1.5804,1.5841,1.5843,1.5839,1.5934,1.595,1.6009,1.5905,1.6177,1.6184,1.6192,1.6264,1.6279,1.6293,0,0,0,0,0,1.5621,1.5708,1.569,1.5706,1.5785,1.5855,1.5866,1.5857,1.5816,1.5858,1.5871,1.5842,1.5992,1.5943,1.5961,1.6023,1.6173,1.6182,1.6191,1.6257,1.6276,1.6292,0,0,0,0,0,0,1.5688,1.5711,1.5692,1.5789,1.5821,1.5846,1.5899,1.5877,1.5923,1.5915,1.5904,1.5913,1.6007,1.6024,1.5969,1.6135,1.6076,1.6089,1.6121,1.6139,1.6153,1.6148,1.591,0,0,0,0,0,1.5713,1.5766,1.5785,1.587,1.5886,1.589,1.5921,1.5911,1.5944,1.5958,1.5976,1.6012,1.6067,1.6104,1.6155,1.6265,1.6274,1.6317,1.6331,1.6343,1.6355,1.6417,1.6437,1.6225,1.6225,1.6225,0,0,1.5768,1.5787,1.5822,1.5884,1.5906,1.5965,1.5902,1.5965,1.6009,1.5968,1.6053,1.6069,1.6107,1.6208,1.6254,1.6225,1.6415,1.6354,1.6364,1.637,1.6429,1.6449,1.6467,1.6231,1.623,1.6229,0,0,1.5897,1.5915,1.5989,1.6013,1.6048,1.605,1.6068,1.6097,1.6105,1.619,1.6161,1.6215,1.6309,1.6339,1.6366,1.6508,1.6485,1.6525,1.6602,1.6663,1.6679,1.6694,1.6747,1.6766,1.6537,1.6537,1.6537,0,1.5961,1.6044,1.603,1.6096,1.6126,1.6089,1.6165,1.619,1.6242,1.6264,1.6231,1.635,1.6373,1.6482,1.6516,1.6539,1.6562,1.6522,1.6678,1.6692,1.6706,1.6757,1.6776,1.6542,1.6541,1.6541,1.654,0,1.6122,1.6181,1.6237,1.6285,1.6321,1.6392,1.6391,1.643,1.6418,1.6424,1.6513,1.654,1.6597,1.6622,1.6611,1.673,1.6712,1.6678,1.662,1.6731,1.6779,1.6798,1.6549,1.6547,1.6546,1.6544,0,0,1.6295,1.6335,1.6356,1.6379,1.6415,1.6462,1.6533,1.6587,1.6621,1.6658,1.6719,1.68,1.677,1.6801,1.6794,1.6847,1.6961,1.6808,1.6808,1.6837,1.7097,1.7123,1.7146,1.6945,1.6949,1.6952,1.7094,0,1.6428,1.6548,1.6538,1.6653,1.6709,1.6676,1.6738,1.6769,1.6778,1.6829,1.6839,1.6898,1.6852,1.6871,1.6922,1.6936,1.7013,1.6926,1.7005,1.7008,1.6998,1.717,1.7198,1.7331,1.7113,1.7116,1.7118,0,1.6598,1.6639,1.676,1.6789,1.6813,1.6868,1.6918,1.6966,1.7002,1.7005,1.704,1.7024,1.7099,1.7037,1.7141,1.7082,1.7114,1.7126,1.7131,1.714,1.7071,1.7186,1.7373,1.7394,1.7147,1.7144,1.7142,0,1.6715,1.6801,1.6884,1.6905,1.6941,1.6981,1.6999,1.703,1.7064,1.7109,1.7131,1.7185,1.7215,1.7258,1.7258,1.7213,1.7365,1.7303,1.7372,1.7373,1.7407,1.7406,1.7605,1.7425,1.7424,1.7424,1.7424,0,1.6865,1.6941,1.6938,1.699,1.7074,1.7063,1.7149,1.7162,1.7191,1.7247,1.7222,1.7276,1.7271,1.7327,1.7328,1.7416,1.7429,1.7436,1.7435,1.7439,1.7439,1.7461,1.7453,1.7429,1.7428,1.7427,1.7426,0,1.7011,1.7011,1.7101,1.7128,1.7136,1.7198,1.7222,1.7273,1.7279,1.7351,1.7367,1.7378,1.7442,1.7446,1.752,1.7521,1.7629,1.7617,1.7616,1.7615,1.7685,1.7679,1.7908,1.7938,1.7736,1.7738,1.774,0,1.7107,1.7165,1.7197,1.7232,1.7251,1.7308,1.7342,1.7334,1.7372,1.7417,1.7463,1.7524,1.7572,1.7677,1.7694,1.7751,1.7742,1.7818,1.7751,1.7753,1.7746,1.7744,1.7751,1.7832,1.7834,1.7836,1.7837,0,1.728,1.7277,1.7326,1.7376,1.7417,1.7457,1.7493,1.7524,1.7521,1.7565,1.7628,1.7666,1.7741,1.7804,1.786,1.7881,1.7861,1.7858,1.7878,1.7883,1.7881,1.7886,1.7654,1.7854,1.7852,1.7851,1.785,1.7849,1.7405,1.7455,1.7487,1.7543,1.7569,1.7604,1.7654,1.7666,1.7718,1.7778,1.7771,1.7842,1.7879,1.7952,1.7978,1.8036,1.801,1.8038,1.8045,1.8053,1.8061,1.787,1.8046,1.8045,1.8045,1.8045,1.8044,0,1.7578,1.7597,1.7648,1.77,1.7745,1.7718,1.7758,1.7798,1.7861,1.7896,1.7944,1.8019,1.8079,1.81,1.816,1.8203,1.8195,1.8219,1.8217,1.8223,1.808,1.8058,1.8224,1.8224,1.8224,1.8224,1.8224,1.8224,1.7674,1.7758,1.7759,1.7858,1.7876,1.7944,1.797,1.8003,1.8031,1.8115,1.8164,1.8177,1.8208,1.8269,1.8325,1.833,1.8354,1.8382,1.8384,1.825,1.8232,1.8215,1.8195,1.8387,1.8387,1.8522,1.8523,1.8524]},{"header":{"parameterUnit":"m.s-1","parameterCategory":1,"la1":30.2991,"la2":30.254,"lo1":-89.0895,"lo2":-89.0444,"dy":0.0017,"dx":0.0017,"nx":28,"ny":28,"refTime":"2025-07-23T03:00:00:Z","depth":0,"parameterNumber":3,"parameterNumberName":"V-component_of_WINDS"},"data":[0,0,0,0,0,0,0,0,0,0,0,0,0,0,0,0,0,0,0,0,0,0,0,0,0,0,0,0,0,0,0,0,0,0,0,0,0,0,0,0,0,0,0,0,0,0,0,0,0,0,0,0,0,0,0,0,0,0,-0.4272,-0.427,0,-0.4083,-0.4081,-0.4079,-0.4073,-0.4075,-0.4077,-0.4079,-0.3879,-0.3872,-0.3865,0,0,0,0,0,0,0,0,0,0,0,0,0,-0.4622,-0.4616,-0.4272,-0.427,-0.4267,-0.4083,-0.4081,-0.4078,-0.4072,-0.4075,-0.4078,-0.408,-0.3882,-0.3873,-0.3864,0,0,0,0,0,0,0,0,0,0,0,0,0,-0.4455,-0.4614,-0.4272,-0.4242,-0.4238,-0.4084,-0.4081,-0.4078,-0.4072,-0.4075,-0.4079,-0.4082,-0.3885,-0.3874,-0.3863,-0.3724,0,0,-0.3829,-0.3824,0,0,0,0,0,0,0,0,-0.4465,-0.4443,-0.4249,-0.4244,-0.4239,-0.4105,-0.4131,-0.3959,-0.4071,-0.4134,-0.4079,-0.4083,-0.3951,-0.3935,-0.3892,-0.3715,-0.3706,-0.3828,-0.3821,-0.3816,-0.3813,0,0,0,0,0,0,0,-0.4476,-0.4451,-0.4197,-0.4246,-0.424,-0.4237,-0.4217,-0.4098,-0.4025,-0.4129,-0.4128,-0.4106,-0.3949,-0.3902,-0.3887,-0.3703,-0.3828,-0.3818,-0.3811,-0.3807,-0.3406,-0.3402,0,0,0,0,0,0,-0.4495,-0.446,-0.4203,-0.4191,-0.4363,-0.4228,-0.4205,-0.4144,-0.4027,-0.4012,-0.4104,-0.4107,-0.392,-0.39,-0.388,-0.3712,-0.3816,-0.3806,-0.3799,-0.341,-0.3405,-0.3401,0,0,0,0,0,0,-0.4502,-0.4472,-0.4211,-0.4326,-0.4292,-0.4218,-0.4149,-0.4139,-0.4092,-0.4008,-0.3994,-0.407,-0.3922,-0.3896,-0.3764,-0.3705,-0.38,-0.379,-0.3414,-0.3408,-0.3403,-0.3374,0,0,0,0,0,0,-0.4512,-0.4475,-0.4422,-0.4325,-0.4286,-0.4099,-0.4146,-0.4133,-0.4074,-0.4076,-0.3972,-0.3958,-0.3922,-0.3781,-0.3753,-0.3691,-0.3782,-0.3419,-0.3412,-0.3405,-0.338,-0.3368,-0.3357,0,0,0,0,0,-0.4525,-0.442,-0.442,-0.4389,-0.4219,-0.4096,-0.4074,-0.4037,-0.4069,-0.4015,-0.3961,-0.3962,-0.3716,-0.3767,-0.3736,-0.367,-0.3423,-0.3414,-0.3405,-0.3385,-0.337,-0.3357,0,0,0,0,0,0,-0.4509,-0.4406,-0.4405,-0.4265,-0.419,-0.4095,-0.4026,-0.4022,-0.3934,-0.3939,-0.3895,-0.3872,-0.3742,-0.3692,-0.3752,-0.3531,-0.3573,-0.3557,-0.3568,-0.3553,-0.3542,-0.3557,-0.3772,0,0,0,0,0,-0.449,-0.4401,-0.4314,-0.4199,-0.4162,-0.4101,-0.4045,-0.4024,-0.3943,-0.391,-0.3846,-0.3766,-0.3671,-0.3609,-0.3517,-0.3372,-0.335,-0.3311,-0.33,-0.3291,-0.3279,-0.32,-0.3183,-0.3372,-0.3372,-0.3372,0,0,-0.4448,-0.4381,-0.4326,-0.4194,-0.4133,-0.4041,-0.4074,-0.3973,-0.3904,-0.3894,-0.3768,-0.3718,-0.3625,-0.3488,-0.3424,-0.3442,-0.3222,-0.328,-0.3274,-0.3265,-0.319,-0.3172,-0.3156,-0.3366,-0.3367,-0.3368,0,0,-0.4326,-0.4265,-0.4164,-0.4103,-0.4012,-0.3972,-0.3948,-0.3854,-0.3822,-0.3695,-0.3686,-0.3602,-0.3438,-0.3374,-0.3319,-0.3175,-0.3172,-0.3145,-0.3087,-0.3011,-0.2997,-0.2983,-0.2933,-0.2916,-0.3133,-0.3133,-0.3133,0,-0.4285,-0.4147,-0.4112,-0.4013,-0.3955,-0.3945,-0.3842,-0.3784,-0.3665,-0.3625,-0.3649,-0.3445,-0.3382,-0.323,-0.3196,-0.3151,-0.3122,-0.3157,-0.3002,-0.2988,-0.2975,-0.2927,-0.2908,-0.313,-0.3131,-0.3131,-0.3131,0,-0.4102,-0.4006,-0.3935,-0.3825,-0.3759,-0.3658,-0.3607,-0.3544,-0.3529,-0.3487,-0.3357,-0.3282,-0.3175,-0.3137,-0.3119,-0.2983,-0.2998,-0.3012,-0.3053,-0.2955,-0.2909,-0.289,-0.3127,-0.3128,-0.3128,-0.3129,0,0,-0.3963,-0.3837,-0.3812,-0.3763,-0.3662,-0.3586,-0.3485,-0.3384,-0.3331,-0.325,-0.3164,-0.3028,-0.3041,-0.2979,-0.2954,-0.2888,-0.2781,-0.291,-0.2907,-0.289,-0.2627,-0.2619,-0.2598,-0.2778,-0.2775,-0.2772,-0.2636,0,-0.383,-0.3653,-0.362,-0.3465,-0.3377,-0.3367,-0.3279,-0.3207,-0.3165,-0.3083,-0.3035,-0.294,-0.2964,-0.2927,-0.2861,-0.2808,-0.2727,-0.2817,-0.2698,-0.2694,-0.2723,-0.2573,-0.2563,-0.2438,-0.2617,-0.2614,-0.2612,0,-0.3652,-0.357,-0.3408,-0.3322,-0.3283,-0.3205,-0.311,-0.3032,-0.295,-0.2924,-0.2857,-0.284,-0.2734,-0.2781,-0.2634,-0.2696,-0.2645,-0.2611,-0.2606,-0.2594,-0.2648,-0.2559,-0.2397,-0.2379,-0.2583,-0.2585,-0.2587,0,-0.3569,-0.3418,-0.3302,-0.326,-0.3156,-0.3101,-0.3055,-0.2977,-0.2919,-0.2835,-0.2797,-0.2701,-0.2649,-0.2574,-0.2532,-0.257,-0.2389,-0.2432,-0.2365,-0.2366,-0.2327,-0.233,-0.2157,-0.2292,-0.2293,-0.2293,-0.2293,0,-0.3425,-0.3326,-0.3264,-0.3193,-0.3082,-0.3044,-0.2935,-0.2889,-0.282,-0.2739,-0.2723,-0.2647,-0.2595,-0.2511,-0.2476,-0.2361,-0.2337,-0.2313,-0.2305,-0.2315,-0.2318,-0.2282,-0.229,-0.2288,-0.2289,-0.229,-0.2291,0,-0.3314,-0.3268,-0.3142,-0.3055,-0.3031,-0.2953,-0.2878,-0.2807,-0.2767,-0.2664,-0.2638,-0.2572,-0.2473,-0.2424,-0.2299,-0.2276,-0.2146,-0.2143,-0.2175,-0.2172,-0.2109,-0.2116,-0.1907,-0.1878,-0.2031,-0.203,-0.2029,0,-0.3226,-0.3151,-0.3057,-0.3003,-0.2956,-0.2869,-0.281,-0.277,-0.271,-0.2613,-0.2554,-0.2455,-0.2374,-0.2215,-0.2156,-0.2061,-0.2056,-0.1989,-0.2042,-0.2055,-0.2057,-0.2063,-0.2056,-0.198,-0.1979,-0.1978,-0.1977,0,-0.3075,-0.3057,-0.2975,-0.2885,-0.2817,-0.2744,-0.2671,-0.2627,-0.2575,-0.2508,-0.2408,-0.2345,-0.222,-0.2122,-0.2023,-0.1974,-0.1966,-0.1961,-0.1941,-0.195,-0.1973,-0.1962,-0.2151,-0.1966,-0.1967,-0.1968,-0.1968,-0.1969,-0.2974,-0.2907,-0.2832,-0.2741,-0.2684,-0.2617,-0.2548,-0.25,-0.2417,-0.2314,-0.2294,-0.2189,-0.211,-0.1977,-0.1925,-0.1841,-0.1855,-0.1825,-0.1818,-0.1812,-0.181,-0.1986,-0.1822,-0.1823,-0.1823,-0.1823,-0.1823,0,-0.2824,-0.2776,-0.2693,-0.2594,-0.2523,-0.2525,-0.2445,-0.2385,-0.2294,-0.2222,-0.2143,-0.2029,-0.1935,-0.1869,-0.1772,-0.1718,-0.1712,-0.1694,-0.1698,-0.1687,-0.1801,-0.183,-0.1701,-0.1701,-0.1701,-0.1701,-0.1701,-0.1701,-0.2737,-0.2626,-0.2599,-0.2459,-0.241,-0.2309,-0.2264,-0.2202,-0.2146,-0.202,-0.1943,-0.1901,-0.1832,-0.1731,-0.1644,-0.1627,-0.1593,-0.1575,-0.1558,-0.1666,-0.1679,-0.1691,-0.1718,-0.1567,-0.1567,-0.1451,-0.145,-0.1449]}]]